Location: Hilton Head Island
(32.2163°N, 80.7526°W)
Time: 20:21:56
(UTC-04:00)

Vanguard 2 Rocket - Pass Details

Date: 18 February 2026
Orbit: 553 x 3286 km, 32.9° (Epoch: 9 March)

Event Time Altitude Azimuth Distance (km) Brightness Sun altitude
Rises 08:06:27 0° 184° (S) 6,595 11.5 12.1°
Reaches altitude 10° 08:13:39 10° 166° (SSE) 5,961 11.7 13.5°
Maximum altitude 08:23:29 16° 134° (SE) 5,678 12.7 15.4°
Drops below altitude 10° 08:33:26 10° 103° (ESE) 6,145 13.1 17.3°
Sets 08:40:50 0° 86° (E) 6,905 12.4 18.7°
